Weather History for Madison, WI

Change the Weather History Date:

Thursday, August 1, 2013

  Actual Average Record
Temperature  
Mean Temperature 70 °F 71 °F  
Max Temperature 78 °F 81 °F 101 °F (1988)
Min Temperature 61 °F 61 °F 47 °F (1976)
Degree Days  
Heating Degree Days 0 0  
Month to date heating degree days 0 0  
Since 1 June heating degree days 70 70  
Since 1 July heating degree days 18 10  
Cooling Degree Days 5 6  
Month to date cooling degree days 5 6  
Year to date cooling degree days 426 362  
Since 1 June cooling degree days 373 332  
Growing Degree Days 20 (Base 50)    
Moisture  
Dew Point 56 °F    
Average Humidity 67    
Maximum Humidity 93    
Minimum Humidity 40    
Precipitation  
Precipitation 0.00 in 0.13 in 2.79 in (1931)
Month to date precipitation 0.00 0.13  
Year to date precipitation 34.95 20.68  
Snow  
Snow 0.00 in 0.00 in 0.00 in ()
Month to date snowfall 0.0 0.0  
Since 1 June snowfall 0.0 0.0  
Since 1 July snowfall 0.0 0.0  
Snow Depth 0.00 in    
Sea Level Pressure  
Sea Level Pressure 29.97 in    
Wind  
Wind Speed 6 mph (NW)    
Max Wind Speed 15 mph    
Max Gust Speed 22 mph    
Visibility 10 miles    
Events      
T = Trace of Precipitation, MM = Missing Value Source: NWS Daily Summary

Daily Weather History Graph

Daily Weather History Graph

Search for Another Location

Airport:

Trip Planner

Search our weather history database for the weather conditions in past years. The results will help you decide how hot, cold, wet, or windy it might be!

Date:

Astronomy

Aug. 01, 2013 Rise Set
Actual Time 5:48 AM CDT 8:18 PM CDT
Civil Twilight 5:15 AM CDT 8:50 PM CDT
Nautical Twilight 4:35 AM CDT 9:30 PM CDT
Astronomical Twilight 3:49 AM CDT 10:16 PM CDT
Moon 1:23 AM CDT (8/1) 4:28 PM CDT (8/1)
Length of Visible Light 15h 34m
Length of Day
14h 30m
Waning Crescent, 23% of the Moon is Illuminated
Aug 1
Waning Crescent
Aug 6
New
Aug 14
First Quarter
Aug 20
Full
Aug 28
Last Quarter

Hourly Weather History & Observations

Time (CDT) Temp. Dew Point Humidity Pressure Visibility Wind Dir Wind Speed Gust Speed Precip Events Conditions
12:53 AM 64.9 °F 61.0 °F 87% 29.97 in 10.0 mi Calm Calm - N/A   Scattered Clouds
1:53 AM 66.0 °F 61.0 °F 84% 29.96 in 10.0 mi West 3.5 mph - N/A   Clear
2:53 AM 64.0 °F 61.0 °F 90% 29.96 in 10.0 mi WNW 5.8 mph - N/A   Clear
3:53 AM 63.0 °F 60.1 °F 90% 29.96 in 10.0 mi WNW 6.9 mph - N/A   Partly Cloudy
4:53 AM 62.1 °F 59.0 °F 90% 29.96 in 10.0 mi NW 5.8 mph - N/A   Partly Cloudy
5:53 AM 61.0 °F 57.9 °F 90% 29.97 in 10.0 mi NW 4.6 mph - N/A   Partly Cloudy
6:53 AM 62.1 °F 57.9 °F 86% 29.98 in 10.0 mi WNW 5.8 mph - N/A   Partly Cloudy
7:53 AM 66.0 °F 57.9 °F 75% 29.99 in 10.0 mi NW 5.8 mph - N/A   Partly Cloudy
8:53 AM 68.0 °F 57.0 °F 68% 29.99 in 10.0 mi NW 8.1 mph - N/A   Partly Cloudy
9:53 AM 71.1 °F 55.9 °F 59% 30.01 in 10.0 mi NNW 6.9 mph - N/A   Partly Cloudy
10:53 AM 73.0 °F 55.0 °F 53% 30.00 in 10.0 mi NNW 9.2 mph - N/A   Scattered Clouds
11:53 AM 73.0 °F 54.0 °F 51% 30.01 in 10.0 mi NW 9.2 mph - N/A   Scattered Clouds
12:53 PM 73.9 °F 52.0 °F 46% 30.00 in 10.0 mi NNW 9.2 mph 17.3 mph N/A   Mostly Cloudy
1:53 PM 75.9 °F 52.0 °F 43% 29.99 in 10.0 mi NW 9.2 mph 19.6 mph N/A   Scattered Clouds
2:53 PM 77.0 °F 52.0 °F 42% 29.98 in 10.0 mi NW 11.5 mph 17.3 mph N/A   Scattered Clouds
3:53 PM 78.1 °F 54.0 °F 43% 29.97 in 10.0 mi NNW 5.8 mph - N/A   Scattered Clouds
4:53 PM 78.1 °F 53.1 °F 42% 29.95 in 10.0 mi NW 5.8 mph - N/A   Partly Cloudy
5:53 PM 77.0 °F 54.0 °F 45% 29.94 in 10.0 mi NW 4.6 mph - N/A   Scattered Clouds
6:53 PM 75.0 °F 54.0 °F 48% 29.95 in 10.0 mi Variable 3.5 mph - N/A   Mostly Cloudy
7:53 PM 73.0 °F 54.0 °F 51% 29.94 in 10.0 mi Calm Calm - N/A   Partly Cloudy
8:53 PM 66.9 °F 55.0 °F 66% 29.93 in 10.0 mi Calm Calm - N/A   Partly Cloudy
9:53 PM 66.0 °F 57.9 °F 75% 29.93 in 10.0 mi Calm Calm - N/A   Partly Cloudy
10:53 PM 63.0 °F 57.0 °F 81% 29.91 in 10.0 mi Calm Calm - N/A   Partly Cloudy
11:53 PM 66.9 °F 57.0 °F 70% 29.90 in 10.0 mi South 4.6 mph - N/A   Partly Cloudy